Time,TemperatureF,DewpointF,PressureIn,WindDirection,WindDirectionDegrees,WindSpeedMPH,WindSpeedGustMPH,Humidity,HourlyPrecipIn,Conditions,Clouds,dailyrainin,SoftwareType,DateUTC
2013-06-10 00:02:00,70.7,69.8,30.10,SE,135,0.0,0.0,97,0.00,,,1.16,meteohub,2013-06-10 04:02:00,
2013-06-10 00:03:00,70.7,69.8,30.10,SE,135,0.0,0.0,97,0.00,,,1.16,meteohub,2013-06-10 04:03:00,
2013-06-10 00:06:00,70.7,69.8,30.10,SE,135,0.0,0.0,97,0.00,,,0.00,meteohub,2013-06-10 04:06:00,
2013-06-10 00:12:00,70.7,69.8,30.10,SE,135,0.0,0.0,97,0.00,,,0.00,meteohub,2013-06-10 04:12:00,
2013-06-10 00:17:00,70.7,69.8,30.10,SE,135,0.0,0.0,97,0.00,,,0.00,meteohub,2013-06-10 04:17:00,
2013-06-10 00:19:00,70.7,69.8,30.10,SE,135,0.0,0.0,97,0.00,,,0.00,meteohub,2013-06-10 04:19:00,
2013-06-10 00:25:00,70.7,69.8,30.10,SE,135,0.0,0.0,97,0.00,,,0.00,meteohub,2013-06-10 04:25:00,
2013-06-10 00:28:00,70.5,69.6,30.10,SE,135,0.0,0.0,97,0.00,,,0.00,meteohub,2013-06-10 04:28:00,
2013-06-10 00:34:00,70.5,69.6,30.10,SE,135,0.0,0.0,97,0.00,,,0.00,meteohub,2013-06-10 04:34:00,
2013-06-10 00:40:00,70.3,69.4,30.10,SE,135,0.0,0.0,97,0.00,,,0.00,meteohub,2013-06-10 04:40:00,
2013-06-10 00:46:00,70.3,69.4,30.10,SE,135,0.0,0.0,97,0.00,,,0.00,meteohub,2013-06-10 04:46:00,
2013-06-10 00:52:00,70.2,69.3,30.10,SE,135,0.0,0.0,97,0.00,,,0.00,meteohub,2013-06-10 04:52:00,
2013-06-10 00:57:00,70.2,69.3,30.10,SE,135,0.0,0.0,97,0.00,,,0.00,meteohub,2013-06-10 04:57:00,
2013-06-10 01:02:00,70.0,69.1,30.10,SE,135,0.0,0.0,97,0.00,,,0.00,meteohub,2013-06-10 05:02:00,
2013-06-10 01:07:00,70.0,69.1,30.09,SE,135,0.0,0.0,97,0.00,,,0.00,meteohub,2013-06-10 05:07:00,
2013-06-10 01:13:00,70.0,69.1,30.09,SE,135,0.0,0.0,97,0.00,,,0.00,meteohub,2013-06-10 05:13:00,
2013-06-10 01:19:00,69.8,69.3,30.09,SE,135,0.0,0.0,98,0.00,,,0.00,meteohub,2013-06-10 05:19:00,
2013-06-10 01:25:00,69.6,69.1,30.09,SE,135,0.0,0.0,98,0.00,,,0.00,meteohub,2013-06-10 05:25:00,
2013-06-10 01:31:00,69.6,69.1,30.09,SE,135,0.0,0.0,98,0.00,,,0.00,meteohub,2013-06-10 05:31:00,
2013-06-10 01:37:00,69.4,68.9,30.09,SE,135,1.0,0.0,98,0.00,,,0.00,meteohub,2013-06-10 05:37:00,
2013-06-10 01:42:00,69.4,68.9,30.09,SE,135,0.0,1.0,98,0.00,,,0.00,meteohub,2013-06-10 05:42:00,
2013-06-10 01:47:00,69.6,69.1,30.09,SE,135,0.0,1.0,98,0.00,,,0.00,meteohub,2013-06-10 05:47:00,
2013-06-10 01:52:00,69.6,69.1,30.09,SE,135,0.0,1.0,98,0.00,,,0.00,meteohub,2013-06-10 05:52:00,
2013-06-10 01:58:00,69.8,69.3,30.08,SE,135,0.0,0.0,98,0.01,,,0.01,meteohub,2013-06-10 05:58:00,
2013-06-10 02:05:00,69.8,69.3,30.08,SE,135,0.0,0.0,98,0.01,,,0.01,meteohub,2013-06-10 06:05:00,
2013-06-10 02:11:00,70.2,69.8,30.08,SE,135,0.0,0.0,99,0.02,,,0.02,meteohub,2013-06-10 06:11:00,
2013-06-10 02:17:00,70.3,70.0,30.07,NE,45,2.0,2.0,99,0.02,,,0.02,meteohub,2013-06-10 06:17:00,
2013-06-10 02:22:00,70.5,70.2,30.07,NE,45,0.0,2.0,99,0.02,,,0.02,meteohub,2013-06-10 06:22:00,
2013-06-10 02:27:00,70.7,70.3,30.07,SW,225,1.0,2.0,99,0.02,,,0.02,meteohub,2013-06-10 06:27:00,
2013-06-10 02:32:00,70.7,70.3,30.07,West,270,0.0,3.0,99,0.02,,,0.02,meteohub,2013-06-10 06:32:00,
2013-06-10 02:38:00,70.9,70.5,30.07,SE,135,0.0,3.0,99,0.02,,,0.02,meteohub,2013-06-10 06:38:00,
2013-06-10 02:44:00,70.9,70.5,30.07,SE,135,0.0,3.0,99,0.02,,,0.02,meteohub,2013-06-10 06:44:00,
2013-06-10 02:50:00,70.9,70.5,30.06,SE,135,0.0,2.0,99,0.02,,,0.02,meteohub,2013-06-10 06:50:00,
2013-06-10 02:56:00,71.1,70.7,30.07,West,270,2.0,2.0,99,0.01,,,0.02,meteohub,2013-06-10 06:56:00,
2013-06-10 03:02:00,71.1,70.7,30.06,West,270,1.0,3.0,99,0.01,,,0.02,meteohub,2013-06-10 07:02:00,
2013-06-10 03:07:00,71.1,70.7,30.07,West,270,1.0,3.0,99,0.01,,,0.02,meteohub,2013-06-10 07:07:00,
2013-06-10 03:12:00,71.1,70.7,30.07,East,90,3.0,3.0,99,0.00,,,0.02,meteohub,2013-06-10 07:12:00,
2013-06-10 03:17:00,71.1,70.7,30.07,South,180,0.0,3.0,99,0.00,,,0.02,meteohub,2013-06-10 07:17:00,
2013-06-10 03:24:00,71.1,70.7,30.06,South,180,0.0,3.0,99,0.00,,,0.02,meteohub,2013-06-10 07:24:00,
2013-06-10 03:30:00,71.1,70.7,30.06,South,180,0.0,3.0,99,0.00,,,0.02,meteohub,2013-06-10 07:30:00,
2013-06-10 03:36:00,71.1,70.7,30.06,South,180,0.0,0.0,99,0.00,,,0.02,meteohub,2013-06-10 07:36:00,
2013-06-10 03:42:00,71.1,70.7,30.06,South,180,0.0,0.0,99,0.00,,,0.02,meteohub,2013-06-10 07:42:00,
2013-06-10 03:47:00,71.1,70.7,30.06,South,180,0.0,0.0,99,0.00,,,0.02,meteohub,2013-06-10 07:47:00,
2013-06-10 03:52:00,71.1,70.7,30.06,South,180,0.0,0.0,99,0.00,,,0.02,meteohub,2013-06-10 07:52:00,
2013-06-10 03:57:00,71.1,70.7,30.06,South,180,0.0,0.0,99,0.00,,,0.02,meteohub,2013-06-10 07:57:00,
2013-06-10 04:05:00,71.2,70.9,30.06,East,90,0.0,2.0,99,0.00,,,0.02,meteohub,2013-06-10 08:05:00,
2013-06-10 04:11:00,71.2,70.9,30.06,East,90,0.0,2.0,99,0.00,,,0.02,meteohub,2013-06-10 08:11:00,
2013-06-10 04:17:00,71.1,70.7,30.05,East,90,0.0,2.0,99,0.00,,,0.02,meteohub,2013-06-10 08:17:00,
2013-06-10 04:22:00,71.1,70.7,30.05,East,90,0.0,2.0,99,0.00,,,0.02,meteohub,2013-06-10 08:22:00,
2013-06-10 04:27:00,71.2,70.9,30.05,East,90,0.0,2.0,99,0.00,,,0.02,meteohub,2013-06-10 08:27:00,
2013-06-10 04:32:00,71.2,70.9,30.05,East,90,0.0,1.0,99,0.00,,,0.02,meteohub,2013-06-10 08:32:00,
2013-06-10 04:37:00,71.2,70.9,30.05,East,90,0.0,1.0,99,0.00,,,0.02,meteohub,2013-06-10 08:37:00,
2013-06-10 04:44:00,71.2,70.9,30.05,East,90,0.0,0.0,99,0.00,,,0.02,meteohub,2013-06-10 08:44:00,
2013-06-10 04:50:00,71.2,70.9,30.05,East,90,0.0,1.0,99,0.00,,,0.02,meteohub,2013-06-10 08:50:00,
2013-06-10 04:56:00,71.2,70.9,30.05,East,90,0.0,0.0,99,0.00,,,0.02,meteohub,2013-06-10 08:56:00,
2013-06-10 05:02:00,71.2,70.9,30.04,East,90,0.0,0.0,99,0.00,,,0.02,meteohub,2013-06-10 09:02:00,
2013-06-10 05:08:00,71.2,70.9,30.05,North,0,0.0,0.0,99,0.00,,,0.02,meteohub,2013-06-10 09:08:00,
2013-06-10 05:14:00,71.2,70.9,30.05,North,0,3.0,3.0,99,0.00,,,0.02,meteohub,2013-06-10 09:14:00,
2013-06-10 05:20:00,71.2,70.9,30.04,SW,225,0.0,3.0,99,0.00,,,0.02,meteohub,2013-06-10 09:20:00,
2013-06-10 05:26:00,71.2,70.9,30.04,SW,225,0.0,3.0,99,0.00,,,0.02,meteohub,2013-06-10 09:26:00,
2013-06-10 05:32:00,71.2,70.9,30.04,SW,225,0.0,2.0,99,0.00,,,0.02,meteohub,2013-06-10 09:32:00,
2013-06-10 05:37:00,71.2,70.9,30.04,SW,225,1.0,1.0,99,0.00,,,0.02,meteohub,2013-06-10 09:37:00,
2013-06-10 05:42:00,71.2,70.9,30.04,SW,225,0.0,1.0,99,0.00,,,0.02,meteohub,2013-06-10 09:42:00,
2013-06-10 05:47:00,71.2,70.9,30.04,SW,225,0.0,1.0,99,0.00,,,0.02,meteohub,2013-06-10 09:47:00,
2013-06-10 05:52:00,71.2,70.9,30.04,SW,225,1.0,1.0,99,0.00,,,0.02,meteohub,2013-06-10 09:52:00,
2013-06-10 05:57:00,71.2,70.9,30.04,SW,225,0.0,1.0,99,0.00,,,0.02,meteohub,2013-06-10 09:57:00,
2013-06-10 06:03:00,71.2,70.9,30.05,SW,225,0.0,1.0,99,0.00,,,0.02,meteohub,2013-06-10 10:03:00,
2013-06-10 06:09:00,71.4,71.1,30.04,SW,225,0.0,1.0,99,0.00,,,0.02,meteohub,2013-06-10 10:09:00,
2013-06-10 06:15:00,71.4,71.1,30.04,SW,225,0.0,1.0,99,0.00,,,0.02,meteohub,2013-06-10 10:15:00,
2013-06-10 06:21:00,71.4,71.1,30.04,SW,225,0.0,0.0,99,0.00,,,0.02,meteohub,2013-06-10 10:21:00,
2013-06-10 06:27:00,71.4,71.1,30.04,NW,315,0.0,0.0,99,0.00,,,0.02,meteohub,2013-06-10 10:27:00,
2013-06-10 06:32:00,71.4,71.1,30.04,NW,315,2.0,2.0,99,0.00,,,0.02,meteohub,2013-06-10 10:32:00,
2013-06-10 06:37:00,71.6,71.2,30.04,West,270,0.0,2.0,99,0.00,,,0.02,meteohub,2013-06-10 10:37:00,
2013-06-10 06:42:00,71.6,71.2,30.03,West,270,0.0,2.0,99,0.00,,,0.02,meteohub,2013-06-10 10:42:00,
2013-06-10 06:47:00,71.8,71.4,30.04,West,270,1.0,2.0,99,0.00,,,0.02,meteohub,2013-06-10 10:47:00,
2013-06-10 06:54:00,71.8,71.4,30.04,East,90,2.0,2.0,99,0.00,,,0.02,meteohub,2013-06-10 10:54:00,
2013-06-10 07:00:00,72.0,71.6,30.04,ENE,68,1.0,3.0,99,0.00,,,0.02,meteohub,2013-06-10 11:00:00,
2013-06-10 07:06:00,72.0,71.6,30.04,NE,45,0.0,3.0,99,0.00,,,0.02,meteohub,2013-06-10 11:06:00,
2013-06-10 07:12:00,72.0,71.6,30.04,NE,45,0.0,2.0,99,0.00,,,0.02,meteohub,2013-06-10 11:12:00,
2013-06-10 07:17:00,72.1,71.8,30.04,South,180,0.0,4.0,99,0.00,,,0.02,meteohub,2013-06-10 11:17:00,
2013-06-10 07:22:00,72.3,72.0,30.03,East,90,0.0,4.0,99,0.00,,,0.02,meteohub,2013-06-10 11:22:00,
2013-06-10 07:27:00,72.3,72.0,30.04,East,90,0.0,4.0,99,0.01,,,0.04,meteohub,2013-06-10 11:27:00,
2013-06-10 07:32:00,72.3,72.0,30.03,East,90,1.0,1.0,99,0.01,,,0.04,meteohub,2013-06-10 11:32:00,
2013-06-10 07:37:00,72.3,72.0,30.03,East,90,0.0,1.0,99,0.01,,,0.04,meteohub,2013-06-10 11:37:00,
2013-06-10 07:42:00,72.5,72.1,30.04,East,90,2.0,2.0,99,0.01,,,0.04,meteohub,2013-06-10 11:42:00,
2013-06-10 07:47:00,72.5,72.1,30.03,East,90,0.0,2.0,99,0.01,,,0.04,meteohub,2013-06-10 11:47:00,
2013-06-10 07:52:00,72.5,72.1,30.04,East,90,0.0,2.0,99,0.01,,,0.04,meteohub,2013-06-10 11:52:00,
2013-06-10 07:57:00,72.5,72.1,30.04,SE,135,1.0,2.0,99,0.01,,,0.04,meteohub,2013-06-10 11:57:00,
2013-06-10 08:04:00,72.7,72.3,30.04,North,0,2.0,2.0,99,0.01,,,0.04,meteohub,2013-06-10 12:04:00,
2013-06-10 08:10:00,72.9,72.5,30.04,North,0,1.0,2.0,99,0.01,,,0.04,meteohub,2013-06-10 12:10:00,
2013-06-10 08:17:00,73.0,72.7,30.04,South,180,2.0,2.0,99,0.01,,,0.04,meteohub,2013-06-10 12:17:00,
2013-06-10 08:22:00,73.0,72.7,30.04,South,180,0.0,2.0,99,0.01,,,0.04,meteohub,2013-06-10 12:22:00,
2013-06-10 08:27:00,73.0,72.7,30.04,South,180,2.0,2.0,99,0.00,,,0.04,meteohub,2013-06-10 12:27:00,
2013-06-10 08:32:00,73.2,72.9,30.04,South,180,0.0,2.0,99,0.00,,,0.04,meteohub,2013-06-10 12:32:00,
2013-06-10 08:38:00,73.4,73.0,30.04,SE,135,2.0,2.0,99,0.00,,,0.04,meteohub,2013-06-10 12:38:00,
2013-06-10 08:44:00,73.6,73.2,30.04,SE,135,1.0,2.0,99,0.01,,,0.05,meteohub,2013-06-10 12:44:00,
2013-06-10 08:50:00,73.8,73.4,30.04,South,180,2.0,3.0,99,0.01,,,0.05,meteohub,2013-06-10 12:50:00,
2013-06-10 08:56:00,73.9,73.6,30.04,South,180,2.0,3.0,99,0.01,,,0.05,meteohub,2013-06-10 12:56:00,
2013-06-10 09:02:00,74.5,74.1,30.04,NE,45,3.0,3.0,99,0.01,,,0.05,meteohub,2013-06-10 13:02:00,
2013-06-10 09:07:00,74.8,74.5,30.04,NE,45,2.0,4.0,99,0.01,,,0.05,meteohub,2013-06-10 13:07:00,
2013-06-10 09:12:00,75.0,74.7,30.04,West,270,2.0,4.0,99,0.01,,,0.05,meteohub,2013-06-10 13:12:00,
2013-06-10 09:17:00,75.0,74.7,30.04,NNW,338,2.0,3.0,99,0.01,,,0.05,meteohub,2013-06-10 13:17:00,
2013-06-10 09:22:00,75.0,74.7,30.04,NE,45,2.0,3.0,99,0.01,,,0.05,meteohub,2013-06-10 13:22:00,
2013-06-10 09:27:00,74.7,74.3,30.04,East,90,2.0,4.0,99,0.01,,,0.05,meteohub,2013-06-10 13:27:00,
2013-06-10 09:32:00,74.8,74.5,30.04,South,180,2.0,4.0,99,0.01,,,0.05,meteohub,2013-06-10 13:32:00,
2013-06-10 09:39:00,74.8,74.5,30.04,SE,135,2.0,4.0,99,0.01,,,0.05,meteohub,2013-06-10 13:39:00,
2013-06-10 09:45:00,75.0,74.7,30.03,SW,225,2.0,3.0,99,0.00,,,0.05,meteohub,2013-06-10 13:45:00,
2013-06-10 09:51:00,75.0,74.7,30.03,South,180,2.0,4.0,99,0.00,,,0.05,meteohub,2013-06-10 13:51:00,
2013-06-10 09:57:00,75.0,74.7,30.03,SW,225,2.0,4.0,99,0.00,,,0.05,meteohub,2013-06-10 13:57:00,
2013-06-10 10:03:00,75.0,74.7,30.03,SE,135,2.0,4.0,99,0.00,,,0.05,meteohub,2013-06-10 14:03:00,
2013-06-10 10:09:00,75.2,74.8,30.03,NE,45,2.0,5.0,99,0.00,,,0.05,meteohub,2013-06-10 14:09:00,
2013-06-10 10:15:00,75.4,75.0,30.03,South,180,2.0,5.0,99,0.00,,,0.05,meteohub,2013-06-10 14:15:00,
2013-06-10 10:21:00,75.7,75.2,30.03,South,180,2.0,3.0,98,0.00,,,0.05,meteohub,2013-06-10 14:21:00,
2013-06-10 10:27:00,76.3,75.7,30.03,South,180,2.0,4.0,98,0.00,,,0.05,meteohub,2013-06-10 14:27:00,
2013-06-10 10:33:00,77.2,76.6,30.02,South,180,2.0,5.0,98,0.00,,,0.05,meteohub,2013-06-10 14:33:00,
2013-06-10 10:39:00,77.4,76.5,30.02,North,0,2.0,5.0,97,0.00,,,0.05,meteohub,2013-06-10 14:39:00,
2013-06-10 10:45:00,77.4,76.1,30.03,South,180,2.0,4.0,96,0.00,,,0.05,meteohub,2013-06-10 14:45:00,
2013-06-10 10:51:00,76.8,75.2,30.03,NE,45,2.0,4.0,95,0.00,,,0.05,meteohub,2013-06-10 14:51:00,
2013-06-10 10:57:00,76.6,75.0,30.03,NE,45,2.0,4.0,95,0.01,,,0.06,meteohub,2013-06-10 14:57:00,
2013-06-10 11:03:00,76.1,74.8,30.03,East,90,2.0,4.0,96,0.01,,,0.06,meteohub,2013-06-10 15:03:00,
2013-06-10 11:09:00,75.4,73.8,30.04,West,270,4.0,4.0,95,0.01,,,0.06,meteohub,2013-06-10 15:09:00,
2013-06-10 11:15:00,73.9,72.1,30.04,South,180,3.0,4.0,94,0.12,,,0.17,meteohub,2013-06-10 15:15:00,
2013-06-10 11:21:00,73.0,71.6,30.04,NE,45,2.0,4.0,95,0.13,,,0.18,meteohub,2013-06-10 15:21:00,
2013-06-10 11:27:00,72.7,71.4,30.03,East,90,2.0,4.0,96,0.14,,,0.19,meteohub,2013-06-10 15:27:00,
2013-06-10 11:33:00,72.5,71.2,30.03,North,0,2.0,4.0,96,0.15,,,0.20,meteohub,2013-06-10 15:33:00,
2013-06-10 11:39:00,72.3,71.1,30.03,NE,45,2.0,4.0,96,0.17,,,0.21,meteohub,2013-06-10 15:39:00,
2013-06-10 11:46:00,72.1,70.9,30.03,South,180,3.0,4.0,96,0.18,,,0.22,meteohub,2013-06-10 15:46:00,
2013-06-10 11:52:00,72.0,71.1,30.03,SE,135,2.0,4.0,97,0.20,,,0.25,meteohub,2013-06-10 15:52:00,
2013-06-10 11:57:00,71.8,70.9,30.03,SE,135,2.0,4.0,97,0.20,,,0.26,meteohub,2013-06-10 15:57:00,
2013-06-10 12:04:00,71.6,70.7,30.03,North,0,2.0,3.0,97,0.21,,,0.27,meteohub,2013-06-10 16:04:00,
2013-06-10 12:10:00,71.4,70.5,30.02,SE,135,1.0,3.0,97,0.21,,,0.28,meteohub,2013-06-10 16:10:00,
2013-06-10 12:16:00,71.4,70.9,30.01,SE,135,0.0,4.0,98,0.11,,,0.28,meteohub,2013-06-10 16:16:00,
2013-06-10 12:22:00,71.4,70.9,30.01,SE,135,1.0,4.0,98,0.11,,,0.30,meteohub,2013-06-10 16:22:00,
2013-06-10 12:27:00,72.0,71.4,30.00,NE,45,0.0,2.0,98,0.11,,,0.30,meteohub,2013-06-10 16:27:00,
2013-06-10 12:32:00,72.1,71.6,30.00,NE,45,0.0,3.0,98,0.09,,,0.30,meteohub,2013-06-10 16:32:00,
2013-06-10 12:37:00,72.5,72.1,30.00,NE,45,1.0,3.0,99,0.08,,,0.30,meteohub,2013-06-10 16:37:00,
2013-06-10 12:43:00,73.0,72.7,30.01,NE,45,1.0,2.0,99,0.07,,,0.30,meteohub,2013-06-10 16:43:00,
2013-06-10 12:49:00,73.9,73.6,30.00,NE,45,0.0,2.0,99,0.06,,,0.30,meteohub,2013-06-10 16:49:00,
2013-06-10 12:55:00,74.7,74.3,30.00,East,90,2.0,2.0,99,0.04,,,0.30,meteohub,2013-06-10 16:55:00,
2013-06-10 13:01:00,75.4,75.0,29.99,South,180,1.0,4.0,99,0.02,,,0.30,meteohub,2013-06-10 17:01:00,
2013-06-10 13:07:00,76.1,75.7,29.99,South,180,2.0,4.0,99,0.01,,,0.30,meteohub,2013-06-10 17:07:00,
2013-06-10 13:12:00,76.6,76.1,29.99,NE,45,3.0,4.0,98,0.01,,,0.30,meteohub,2013-06-10 17:12:00,
2013-06-10 13:17:00,77.4,76.5,29.98,South,180,3.0,3.0,97,0.00,,,0.30,meteohub,2013-06-10 17:17:00,
2013-06-10 13:22:00,78.3,77.0,29.98,SE,135,2.0,3.0,96,0.00,,,0.30,meteohub,2013-06-10 17:22:00,
2013-06-10 13:28:00,78.8,77.2,29.98,South,180,5.0,5.0,95,0.00,,,0.30,meteohub,2013-06-10 17:28:00,
2013-06-10 13:35:00,79.0,77.2,29.98,South,180,2.0,5.0,94,0.00,,,0.30,meteohub,2013-06-10 17:35:00,
2013-06-10 13:41:00,79.3,76.8,29.97,East,90,2.0,5.0,92,0.00,,,0.30,meteohub,2013-06-10 17:41:00,
2013-06-10 13:47:00,79.7,77.2,29.97,South,180,2.0,4.0,92,0.00,,,0.30,meteohub,2013-06-10 17:47:00,
2013-06-10 13:52:00,79.7,77.2,29.97,South,180,2.0,4.0,92,0.00,,,0.30,meteohub,2013-06-10 17:52:00,
2013-06-10 13:57:00,79.5,76.6,29.96,North,0,2.0,3.0,91,0.00,,,0.30,meteohub,2013-06-10 17:57:00,
2013-06-10 14:02:00,78.6,75.7,29.96,North,0,2.0,4.0,91,0.00,,,0.30,meteohub,2013-06-10 18:02:00,
2013-06-10 14:08:00,78.3,75.7,29.95,SE,135,2.0,4.0,92,0.00,,,0.30,meteohub,2013-06-10 18:08:00,
2013-06-10 14:14:00,77.2,74.7,29.95,SE,135,1.0,4.0,92,0.00,,,0.30,meteohub,2013-06-10 18:14:00,
2013-06-10 14:20:00,76.3,74.1,29.94,SE,135,2.0,2.0,93,0.09,,,0.39,meteohub,2013-06-10 18:20:00,
2013-06-10 14:26:00,76.5,74.8,29.95,South,180,2.0,3.0,95,0.09,,,0.39,meteohub,2013-06-10 18:26:00,
2013-06-10 14:32:00,75.7,73.9,29.94,SE,135,2.0,4.0,94,0.09,,,0.39,meteohub,2013-06-10 18:32:00,
2013-06-10 14:37:00,75.7,74.1,29.94,SE,135,2.0,4.0,95,0.12,,,0.41,meteohub,2013-06-10 18:37:00,
2013-06-10 14:42:00,76.1,74.5,29.94,SE,135,2.0,4.0,95,0.13,,,0.43,meteohub,2013-06-10 18:42:00,
2013-06-10 14:47:00,76.5,74.8,29.94,North,0,2.0,4.0,95,0.13,,,0.43,meteohub,2013-06-10 18:47:00,
2013-06-10 14:53:00,77.0,75.4,29.94,South,180,2.0,3.0,95,0.13,,,0.43,meteohub,2013-06-10 18:53:00,
2013-06-10 14:59:00,78.1,76.8,29.94,North,0,2.0,3.0,96,0.13,,,0.43,meteohub,2013-06-10 18:59:00,
2013-06-10 15:05:00,79.0,77.2,29.93,East,90,4.0,4.0,94,0.13,,,0.43,meteohub,2013-06-10 19:05:00,
2013-06-10 15:12:00,79.5,77.4,29.93,South,180,2.0,4.0,93,0.12,,,0.43,meteohub,2013-06-10 19:12:00,
2013-06-10 15:17:00,80.1,77.9,29.92,South,180,3.0,4.0,93,0.04,,,0.43,meteohub,2013-06-10 19:17:00,
2013-06-10 15:22:00,80.8,78.6,29.92,South,180,1.0,4.0,93,0.04,,,0.43,meteohub,2013-06-10 19:22:00,
2013-06-10 15:27:00,81.1,78.3,29.92,South,180,2.0,3.0,91,0.04,,,0.43,meteohub,2013-06-10 19:27:00,
2013-06-10 15:33:00,81.7,79.2,29.92,NE,45,3.0,3.0,92,0.01,,,0.43,meteohub,2013-06-10 19:33:00,
2013-06-10 15:39:00,81.9,79.0,29.91,South,180,2.0,3.0,91,0.01,,,0.43,meteohub,2013-06-10 19:39:00,
2013-06-10 15:45:00,81.5,78.3,29.91,North,0,2.0,4.0,90,0.00,,,0.43,meteohub,2013-06-10 19:45:00,
2013-06-10 15:51:00,81.1,77.9,29.90,NW,315,2.0,4.0,90,0.00,,,0.43,meteohub,2013-06-10 19:51:00,
2013-06-10 15:57:00,80.1,76.5,29.90,North,0,2.0,3.0,89,0.00,,,0.43,meteohub,2013-06-10 19:57:00,
2013-06-10 16:03:00,78.6,75.4,29.90,NW,315,2.0,2.0,90,0.00,,,0.43,meteohub,2013-06-10 20:03:00,
2013-06-10 16:09:00,77.9,75.0,29.90,South,180,2.0,3.0,91,0.05,,,0.47,meteohub,2013-06-10 20:09:00,
2013-06-10 16:15:00,77.7,75.2,29.90,South,180,2.0,5.0,92,0.08,,,0.51,meteohub,2013-06-10 20:15:00,
2013-06-10 16:21:00,77.4,75.2,29.90,South,180,1.0,5.0,93,0.11,,,0.53,meteohub,2013-06-10 20:21:00,
2013-06-10 16:27:00,77.2,75.0,29.90,South,180,1.0,2.0,93,0.11,,,0.53,meteohub,2013-06-10 20:27:00,
2013-06-10 16:32:00,77.4,75.6,29.89,South,180,1.0,2.0,94,0.11,,,0.53,meteohub,2013-06-10 20:32:00,
2013-06-10 16:37:00,77.9,76.3,29.89,NE,45,2.0,2.0,95,0.11,,,0.53,meteohub,2013-06-10 20:37:00,
2013-06-10 16:42:00,77.9,76.3,29.89,SE,135,0.0,2.0,95,0.11,,,0.53,meteohub,2013-06-10 20:42:00,
2013-06-10 16:47:00,77.7,75.9,29.89,NW,315,2.0,2.0,94,0.11,,,0.53,meteohub,2013-06-10 20:47:00,
2013-06-10 16:52:00,77.5,75.7,29.89,NW,315,0.0,2.0,94,0.11,,,0.53,meteohub,2013-06-10 20:52:00,
2013-06-10 16:57:00,77.2,75.6,29.89,West,270,1.0,2.0,95,0.11,,,0.53,meteohub,2013-06-10 20:57:00,
2013-06-10 17:02:00,77.0,75.4,29.89,West,270,1.0,2.0,95,0.06,,,0.53,meteohub,2013-06-10 21:02:00,
2013-06-10 17:07:00,76.6,75.0,29.90,West,270,2.0,2.0,95,0.06,,,0.53,meteohub,2013-06-10 21:07:00,
2013-06-10 17:12:00,76.5,74.8,29.90,West,270,1.0,2.0,95,0.05,,,0.53,meteohub,2013-06-10 21:12:00,
2013-06-10 17:17:00,76.3,74.7,29.90,North,0,2.0,2.0,95,0.01,,,0.53,meteohub,2013-06-10 21:17:00,
2013-06-10 17:22:00,75.9,74.7,29.90,South,180,2.0,2.0,96,0.00,,,0.53,meteohub,2013-06-10 21:22:00,
2013-06-10 17:28:00,75.6,74.3,29.91,South,180,2.0,4.0,96,0.00,,,0.53,meteohub,2013-06-10 21:28:00,
2013-06-10 17:34:00,75.2,73.6,29.91,ENE,68,4.0,6.0,95,0.00,,,0.53,meteohub,2013-06-10 21:34:00,
2013-06-10 17:40:00,74.8,73.2,29.91,East,90,2.0,7.0,95,0.00,,,0.53,meteohub,2013-06-10 21:40:00,
2013-06-10 17:46:00,74.5,73.0,29.90,NE,45,3.0,7.0,95,0.01,,,0.54,meteohub,2013-06-10 21:46:00,
2013-06-10 17:52:00,74.3,73.0,29.89,South,180,4.0,4.0,96,0.01,,,0.54,meteohub,2013-06-10 21:52:00,
2013-06-10 17:57:00,74.1,72.9,29.89,South,180,2.0,4.0,96,0.01,,,0.54,meteohub,2013-06-10 21:57:00,
2013-06-10 18:04:00,74.1,72.9,29.89,South,180,1.0,4.0,96,0.01,,,0.54,meteohub,2013-06-10 22:04:00,
2013-06-10 18:11:00,74.1,72.9,29.89,NE,45,5.0,5.0,96,0.01,,,0.54,meteohub,2013-06-10 22:11:00,
2013-06-10 18:17:00,73.9,72.7,29.90,SE,135,2.0,5.0,96,0.01,,,0.54,meteohub,2013-06-10 22:17:00,
2013-06-10 18:23:00,73.8,72.5,29.90,SE,135,2.0,5.0,96,0.01,,,0.54,meteohub,2013-06-10 22:23:00,
2013-06-10 18:29:00,73.6,72.7,29.90,SE,135,0.0,5.0,97,0.01,,,0.54,meteohub,2013-06-10 22:29:00,
2013-06-10 18:35:00,73.6,72.7,29.90,SE,135,2.0,4.0,97,0.01,,,0.54,meteohub,2013-06-10 22:35:00,
2013-06-10 18:41:00,73.4,72.5,29.89,SE,135,2.0,3.0,97,0.01,,,0.54,meteohub,2013-06-10 22:41:00,
2013-06-10 18:47:00,73.2,72.3,29.89,SE,135,0.0,2.0,97,0.00,,,0.54,meteohub,2013-06-10 22:47:00,
2013-06-10 18:52:00,73.2,72.3,29.90,SE,135,1.0,2.0,97,0.00,,,0.54,meteohub,2013-06-10 22:52:00,
2013-06-10 18:59:00,73.2,72.3,29.89,SE,135,1.0,2.0,97,0.00,,,0.54,meteohub,2013-06-10 22:59:00,
2013-06-10 19:05:00,73.0,72.1,29.89,SE,135,1.0,3.0,97,0.00,,,0.54,meteohub,2013-06-10 23:05:00,
2013-06-10 19:11:00,73.0,72.5,29.90,SE,135,1.0,1.0,98,0.00,,,0.54,meteohub,2013-06-10 23:11:00,
2013-06-10 19:17:00,73.2,72.7,29.90,North,0,3.0,3.0,98,0.01,,,0.56,meteohub,2013-06-10 23:17:00,
2013-06-10 19:22:00,73.2,72.7,29.91,SW,225,1.0,3.0,98,0.01,,,0.56,meteohub,2013-06-10 23:22:00,
2013-06-10 19:27:00,73.0,72.5,29.90,SW,225,0.0,4.0,98,0.01,,,0.56,meteohub,2013-06-10 23:27:00,
2013-06-10 19:33:00,73.2,72.7,29.90,SW,225,0.0,4.0,98,0.01,,,0.56,meteohub,2013-06-10 23:33:00,
2013-06-10 19:39:00,73.2,72.7,29.91,SW,225,0.0,1.0,98,0.01,,,0.56,meteohub,2013-06-10 23:39:00,
2013-06-10 19:45:00,73.2,72.7,29.91,SW,225,0.0,1.0,98,0.01,,,0.56,meteohub,2013-06-10 23:45:00,
2013-06-10 19:51:00,73.2,72.7,29.91,West,270,2.0,2.0,98,0.01,,,0.56,meteohub,2013-06-10 23:51:00,
2013-06-10 19:57:00,73.2,72.7,29.91,NW,315,2.0,2.0,98,0.01,,,0.56,meteohub,2013-06-10 23:57:00,
2013-06-10 20:02:00,73.4,73.0,29.91,NW,315,3.0,3.0,99,0.01,,,0.56,meteohub,2013-06-11 00:02:00,
2013-06-10 20:09:00,73.4,73.0,29.91,SE,135,2.0,3.0,99,0.01,,,0.56,meteohub,2013-06-11 00:09:00,
2013-06-10 20:15:00,73.2,72.9,29.90,East,90,2.0,3.0,99,0.00,,,0.56,meteohub,2013-06-11 00:15:00,
2013-06-10 20:21:00,73.2,72.9,29.91,East,90,1.0,3.0,99,0.00,,,0.56,meteohub,2013-06-11 00:21:00,
2013-06-10 20:27:00,73.0,72.7,29.91,East,90,1.0,3.0,99,0.00,,,0.56,meteohub,2013-06-11 00:27:00,
2013-06-10 20:32:00,73.0,72.7,29.90,SE,135,2.0,5.0,99,0.00,,,0.56,meteohub,2013-06-11 00:32:00,
2013-06-10 20:37:00,72.9,72.5,29.90,SE,135,2.0,5.0,99,0.00,,,0.56,meteohub,2013-06-11 00:37:00,
2013-06-10 20:42:00,72.9,72.5,29.90,SE,135,2.0,5.0,99,0.00,,,0.56,meteohub,2013-06-11 00:42:00,
2013-06-10 20:48:00,72.7,72.3,29.90,North,0,1.0,2.0,99,0.00,,,0.56,meteohub,2013-06-11 00:48:00,
2013-06-10 20:54:00,72.7,72.3,29.90,SE,135,2.0,2.0,99,0.00,,,0.56,meteohub,2013-06-11 00:54:00,
2013-06-10 21:00:00,72.5,72.1,29.90,NE,45,2.0,4.0,99,0.00,,,0.56,meteohub,2013-06-11 01:00:00,
2013-06-10 21:06:00,72.5,72.1,29.90,SE,135,1.0,4.0,99,0.00,,,0.56,meteohub,2013-06-11 01:06:00,
2013-06-10 21:12:00,72.5,72.1,29.91,South,180,3.0,4.0,99,0.00,,,0.56,meteohub,2013-06-11 01:12:00,
2013-06-10 21:19:00,72.3,72.0,29.91,NNW,338,2.0,3.0,99,0.00,,,0.56,meteohub,2013-06-11 01:19:00,
2013-06-10 21:25:00,72.1,71.8,29.91,North,0,2.0,3.0,99,0.00,,,0.56,meteohub,2013-06-11 01:25:00,
2013-06-10 21:31:00,72.1,71.8,29.91,South,180,1.0,4.0,99,0.00,,,0.56,meteohub,2013-06-11 01:31:00,
2013-06-10 21:37:00,72.0,71.6,29.91,South,180,1.0,4.0,99,0.00,,,0.56,meteohub,2013-06-11 01:37:00,
2013-06-10 21:42:00,71.8,71.4,29.91,NE,45,0.0,4.0,99,0.00,,,0.56,meteohub,2013-06-11 01:42:00,
2013-06-10 21:49:00,71.8,71.4,29.91,NE,45,2.0,3.0,99,0.00,,,0.56,meteohub,2013-06-11 01:49:00,
2013-06-10 21:55:00,71.8,71.4,29.91,South,180,1.0,2.0,99,0.00,,,0.56,meteohub,2013-06-11 01:55:00,
2013-06-10 22:01:00,71.6,71.2,29.92,South,180,0.0,2.0,99,0.00,,,0.56,meteohub,2013-06-11 02:01:00,
2013-06-10 22:07:00,71.6,71.2,29.92,South,180,0.0,2.0,99,0.00,,,0.56,meteohub,2013-06-11 02:07:00,
2013-06-10 22:12:00,71.6,71.2,29.92,South,180,2.0,2.0,99,0.00,,,0.56,meteohub,2013-06-11 02:12:00,
2013-06-10 22:17:00,71.4,71.1,29.93,South,180,0.0,2.0,99,0.00,,,0.56,meteohub,2013-06-11 02:17:00,
2013-06-10 22:23:00,71.4,71.1,29.93,East,90,1.0,2.0,99,0.00,,,0.56,meteohub,2013-06-11 02:23:00,
2013-06-10 22:29:00,71.2,70.9,29.93,East,90,1.0,3.0,99,0.00,,,0.56,meteohub,2013-06-11 02:29:00,
2013-06-10 22:35:00,71.2,70.9,29.94,NE,45,0.0,3.0,99,0.00,,,0.56,meteohub,2013-06-11 02:35:00,
2013-06-10 22:41:00,71.2,70.9,29.94,East,90,2.0,2.0,99,0.00,,,0.56,meteohub,2013-06-11 02:41:00,
2013-06-10 22:47:00,71.2,70.9,29.94,East,90,0.0,2.0,99,0.00,,,0.56,meteohub,2013-06-11 02:47:00,
2013-06-10 22:53:00,71.2,70.9,29.94,SW,225,0.0,2.0,99,0.00,,,0.56,meteohub,2013-06-11 02:53:00,
2013-06-10 22:59:00,71.2,70.9,29.94,SW,225,2.0,3.0,99,0.00,,,0.56,meteohub,2013-06-11 02:59:00,
2013-06-10 23:05:00,71.2,70.9,29.94,NE,45,1.0,4.0,99,0.00,,,0.56,meteohub,2013-06-11 03:05:00,
2013-06-10 23:11:00,71.2,70.9,29.95,NE,45,1.0,4.0,99,0.00,,,0.56,meteohub,2013-06-11 03:11:00,
2013-06-10 23:17:00,71.2,70.9,29.94,NE,45,1.0,2.0,99,0.00,,,0.56,meteohub,2013-06-11 03:17:00,
2013-06-10 23:23:00,71.2,70.9,29.94,NE,45,0.0,2.0,99,0.00,,,0.56,meteohub,2013-06-11 03:23:00,
2013-06-10 23:29:00,71.1,70.7,29.94,NE,45,0.0,2.0,99,0.00,,,0.56,meteohub,2013-06-11 03:29:00,
2013-06-10 23:35:00,71.1,70.7,29.94,NE,45,0.0,2.0,99,0.00,,,0.56,meteohub,2013-06-11 03:35:00,
2013-06-10 23:41:00,71.1,70.7,29.94,NE,45,0.0,0.0,99,0.00,,,0.56,meteohub,2013-06-11 03:41:00,
2013-06-10 23:47:00,71.1,70.7,29.94,East,90,1.0,0.0,99,0.00,,,0.56,meteohub,2013-06-11 03:47:00,
2013-06-10 23:53:00,71.1,70.7,29.94,North,0,1.0,2.0,99,0.00,,,0.56,meteohub,2013-06-11 03:53:00,
2013-06-10 23:59:00,71.1,70.7,29.94,North,0,0.0,4.0,99,0.00,,,0.56,meteohub,2013-06-11 03:59:00,